Weather History for Kahului, HI

Change the Weather History Date:

Monday, March 12, 2012

  Actual Average Record
Temperature  
Mean Temperature 67 °F 73 °F  
Max Temperature 75 °F 81 °F 90 °F (1984)
Min Temperature 59 °F 64 °F 52 °F (1993)
Degree Days  
Heating Degree Days 0 0  
Month to date heating degree days 0 0  
Since 1 July heating degree days 0 0  
Cooling Degree Days 2 8  
Month to date cooling degree days 62 88  
Year to date cooling degree days 535 497  
Growing Degree Days 17 (Base 50)    
Moisture  
Dew Point 66 °F    
Average Humidity 90    
Maximum Humidity 100    
Minimum Humidity 79    
Precipitation  
Precipitation 0.13 in 0.08 in 2.40 in (1974)
Month to date precipitation 2.51 0.93  
Year to date precipitation 2.59 5.69  
Snow  
Snow 0.00 in - - ()
Month to date snowfall 0.0  
Since 1 July snowfall 0.0  
Snow Depth 0.00 in    
Sea Level Pressure  
Sea Level Pressure 30.13 in    
Wind  
Wind Speed 17 mph (NE)    
Max Wind Speed 25 mph    
Max Gust Speed 33 mph    
Visibility 8 miles    
Events Rain    
T = Trace of Precipitation, MM = Missing Value Source: NWS Daily Summary

Daily Weather History Graph

Daily Weather History Graph

Search for Another Location

Airport:

Trip Planner

Search our weather history database for the weather conditions in past years. The results will help you decide how hot, cold, wet, or windy it might be!

Date:

Astronomy

Mar. 12, 2012 Rise Set
Actual Time 6:36 AM HST 6:34 PM HST
Civil Twilight 6:14 AM HST 6:56 PM HST
Nautical Twilight 5:48 AM HST 7:22 PM HST
Astronomical Twilight 5:22 AM HST 7:48 PM HST
Moon 11:31 PM HST (3/12) 9:51 AM HST (3/12)
Length of Visible Light 12h 42m
Length of Day
11h 58m
Waning Gibbous, 74% of the Moon is Illuminated
Mar 12
Waning Gibbous
Mar 14
Last Quarter
Mar 22
New
Mar 30
First Quarter
Apr 6
Full

Hourly Weather History & Observations

Time (HST) Temp. Dew Point Humidity Pressure Visibility Wind Dir Wind Speed Gust Speed Precip Events Conditions
12:54 AM 60.1 °F - N/A% 30.13 in 10.0 mi NE 15.0 mph 21.9 mph N/A   Partly Cloudy
1:54 AM 60.1 °F - N/A% 30.12 in 10.0 mi NE 16.1 mph - N/A   Clear
2:52 AM 60.8 °F - N/A% 30.09 in 10.0 mi NE 17.3 mph 24.2 mph 0.00 in   Mostly Cloudy
2:53 AM 60.1 °F - N/A% 30.11 in 9.0 mi NE 19.6 mph 24.2 mph 0.00 in   Mostly Cloudy
3:10 AM 60.8 °F - N/A% 30.09 in 9.0 mi NE 15.0 mph 24.2 mph N/A   Overcast
3:43 AM 60.8 °F - N/A% 30.09 in 6.0 mi NE 15.0 mph - 0.02 in Rain Light Rain
3:54 AM 60.1 °F - N/A% 30.11 in 6.0 mi NE 15.0 mph - 0.02 in Rain Light Rain
4:01 AM 60.8 °F - N/A% 30.09 in 5.0 mi NE 18.4 mph - 0.00 in Rain Light Rain
4:09 AM 60.8 °F - N/A% 30.09 in 4.0 mi NE 16.1 mph - 0.02 in Rain Light Rain
4:54 AM 59.0 °F - N/A% 30.12 in 10.0 mi NE 16.1 mph 23.0 mph 0.02 in   Overcast
5:04 AM 60.8 °F - N/A% 30.10 in 10.0 mi NE 16.1 mph - N/A   Mostly Cloudy
5:39 AM 59.0 °F - N/A% 30.11 in 6.0 mi NE 18.4 mph 26.5 mph 0.01 in Rain Light Rain
5:50 AM 69.8 °F 68.0 °F 94% 30.11 in 6.0 mi NE 18.4 mph 26.5 mph 0.01 in Rain Light Rain
6:33 AM 68.0 °F 68.0 °F 100% 30.11 in 10.0 mi NE 16.1 mph 24.2 mph 0.01 in   Partly Cloudy
6:54 AM 68.0 °F 68.0 °F 100% 30.13 in 10.0 mi NE 17.3 mph 25.3 mph 0.01 in   Mostly Cloudy
7:33 AM 69.8 °F 66.2 °F 88% 30.14 in 7.0 mi ENE 16.1 mph 26.5 mph 0.01 in Rain Light Rain
7:46 AM 69.8 °F 66.2 °F 88% 30.14 in 10.0 mi NE 15.0 mph 23.0 mph 0.02 in Rain Light Rain
7:54 AM 69.8 °F 66.2 °F 88% 30.16 in 10.0 mi NE 19.6 mph 28.8 mph 0.02 in   Scattered Clouds
8:54 AM 69.8 °F 68.0 °F 94% 30.18 in 5.0 mi NE 23.0 mph 31.1 mph 0.01 in Rain Rain
9:42 AM 69.8 °F 68.0 °F 94% 30.17 in 2.0 mi NE 19.6 mph 32.2 mph 0.02 in Rain Rain
9:54 AM 69.8 °F 68.0 °F 94% 30.18 in 5.0 mi NE 21.9 mph 28.8 mph 0.03 in Rain Light Rain
10:01 AM 69.8 °F 69.8 °F 100% 30.16 in 5.0 mi NE 21.9 mph 28.8 mph 0.01 in Rain Light Rain
10:34 AM 69.8 °F 69.8 °F 100% 30.16 in 2.5 mi NE 20.7 mph 29.9 mph 0.01 in Rain Light Rain
10:52 AM 71.6 °F 69.8 °F 94% 30.15 in 5.0 mi NE 19.6 mph 31.1 mph 0.01 in Rain Light Rain
10:54 AM 71.6 °F 69.8 °F 94% 30.17 in 5.0 mi ENE 19.6 mph 31.1 mph 0.01 in Rain Light Rain
11:21 AM 71.6 °F 69.8 °F 94% 30.17 in 9.0 mi NE 17.3 mph 28.8 mph 0.01 in   Mostly Cloudy
11:32 AM 71.6 °F 68.0 °F 88% 30.14 in 9.0 mi ENE 16.1 mph 25.3 mph 0.00 in   Scattered Clouds
11:54 AM 71.6 °F 69.8 °F 94% 30.14 in 9.0 mi NE 17.3 mph 27.6 mph 0.00 in   Scattered Clouds
12:54 PM 73.2 °F 68.5 °F 85% 30.13 in 10.0 mi NE 18.4 mph 25.3 mph N/A   Scattered Clouds
1:54 PM 73.4 °F 66.2 °F 78% 30.11 in 10.0 mi NE 19.6 mph 33.4 mph N/A   Scattered Clouds
2:54 PM 73.4 °F 62.1 °F 68% 30.09 in 10.0 mi ENE 19.6 mph 31.1 mph N/A   Scattered Clouds
3:54 PM 75.2 °F 66.2 °F 73% 30.09 in 10.0 mi ENE 18.4 mph 27.6 mph N/A   Scattered Clouds
4:54 PM 73.0 °F 61.0 °F 66% 30.09 in 10.0 mi NE 13.8 mph 26.5 mph N/A   Scattered Clouds
5:54 PM 71.1 °F 60.1 °F 68% 30.09 in 10.0 mi NE 16.1 mph 21.9 mph N/A   Scattered Clouds
6:54 PM 70.0 °F 59.0 °F 68% 30.11 in 10.0 mi NE 12.7 mph 19.6 mph N/A   Clear
7:54 PM 71.1 °F 59.0 °F 66% 30.12 in 10.0 mi ENE 11.5 mph 20.7 mph N/A   Mostly Cloudy
8:54 PM 69.1 °F 60.1 °F 73% 30.14 in 10.0 mi East 9.2 mph - N/A   Overcast
9:54 PM 70.0 °F 59.0 °F 68% 30.14 in 10.0 mi NE 12.7 mph - N/A   Mostly Cloudy
10:54 PM 69.1 °F 60.1 °F 73% 30.14 in 10.0 mi ENE 5.8 mph - N/A   Mostly Cloudy
11:54 PM 69.1 °F 60.1 °F 73% 30.13 in 10.0 mi ENE 6.9 mph - 0.00 in Rain Light Rain